Погода в Шиели

Казахстан     44°10′40″N   66°43′52″E
темп.,
°C
ветер,
м/с
пор.,
м/с
влажн.,
%
обл.,
%
осадки,
мм/ч
давл.,
гПа
погр.,
м
6 марта, сб
сб623:00+1в346017 0.0 102459
02:00+1св3356100 0.0 102232
05:000ссв225589 0.0 102022
08:00+1ссз466396 0.0 1019134
11:00+6ссв345283 0.0 1017417
14:00+9ссв564480 0.0 1017643
17:00+8св684890 0.0 1016775
20:00+5с51060100 0.0 1018313
7 марта, вс
вс723:00+3с51065100 0.0 1018288
02:00+2с5764100 0.0 1018178
05:00+1ссв4567100 0.0 101991
08:00+2св347492 0.0 102084
11:00+6всв226176 0.0 1021611
14:00+8зсз225017 0.0 1020896
17:00+9юз44388 0.0 10181099
20:00+6ююз34500 0.0 101868
8 марта, пн
пн823:00+4ю335546 0.0 101833
02:00+4ююв4964100 0.0 1017178
05:00+4ю4871100 0.0 1017185
08:00+4ююз3661100 0.0 1018148
11:00+9юз4637100 0.0 1019571
14:00+12зюз563499 0.0 10191314
17:00+12юз453875 0.0 10191360
20:00+8юз23530 0.0 102022
9 марта, вт
вт923:00+5ссв34740 0.0 102050
02:00+5в23629 0.0 101922
05:00+4юв23644 0.0 101722
08:00+5вюв236612 0.0 101622
11:00+12юв244339 0.0 1015432
14:00+15юв343990 0.0 1013948
17:00+15в344195 0.0 1011665
20:00+12в4551100 0.0 100967
10 марта, ср
ср1023:00+10юв2260100 0.0 100822
02:00+10ю346596 0.0 100636
05:00+9ююз346898 0.0 100675
08:00+7з5972100 0.1 1007310
11:00+7зсз796998 0.9 1010693
14:00+8з795672 0.0 10141180
17:00+6з785781 0.0 10151184
20:00+4з584885 0.0 1018563